FW1907 Weather Reports


time (UTC)temp
F
wind
direction
speed
knots
gust
knots
rain 1hr
in
rain 24hr
in
rain mn
in
humidity
%
barometer
mb
20260502205305 67 357 0.0 0.0 0.00 0.00 0.00 24 1016.9
20260502205144 67 338 0.0 0.0 0.00 0.00 0.00 27 1017.0
20260502204303 67 306 0.0 0.0 0.00 0.00 0.00 26 1017.1
20260502203801 67 0 0.0 0.0 0.00 0.00 0.00 26 1017.1
20260502203302 67 17 0.0 0.0 0.00 0.00 0.00 27 1017.2
20260502202802 67 351 0.0 0.0 0.00 0.00 0.00 26 1017.4
20260502202645 67 8 0.0 0.0 0.00 0.00 0.00 26 1017.4
20260502201759 67 323 0.0 0.0 0.00 0.00 0.00 26 1017.5
20260502201301 66 300 0.0 0.0 0.00 0.00 0.00 25 1017.5
20260502200802 66 24 0.0 0.0 0.00 0.00 0.00 26 1017.5
20260502200259 66 348 0.0 0.0 0.00 0.00 0.00 26 1017.6
20260502195759 67 288 0.0 0.0 0.00 0.00 0.00 26 1017.6
20260502195300 67 296 0.0 0.0 0.00 0.00 0.00 27 1017.6
20260502195137 66 276 0.0 0.0 0.00 0.00 0.00 26 1017.8
20260502194300 66 324 0.0 0.0 0.00 0.00 0.00 25 1017.8
20260502193759 66 326 0.0 0.0 0.00 0.00 0.00 26 1017.8
20260502193300 66 290 0.0 0.0 0.00 0.00 0.00 24 1017.8
20260502192800 66 307 0.0 0.0 0.00 0.00 0.00 25 1017.9
20260502192259 65 21 0.0 0.0 0.00 0.00 0.00 27 1017.9
20260502191759 65 261 0.0 0.0 0.00 0.00 0.00 25 1018.1
20260502191259 65 255 0.0 0.0 0.00 0.00 0.00 25 1018.1
20260502190759 65 310 0.0 0.0 0.00 0.00 0.00 26 1018.2
20260502190635 65 269 0.0 0.0 0.00 0.00 0.00 25 1018.4
20260502185800 65 285 0.0 0.0 0.00 0.00 0.00 27 1018.4
20260502185258 65 23 0.0 0.0 0.00 0.00 0.00 27 1018.4
20260502184759 65 24 0.0 0.0 0.00 0.00 0.00 30 1018.5
20260502184259 64 300 0.0 0.0 0.00 0.00 0.00 30 1018.5
20260502183759 64 343 0.0 0.0 0.00 0.00 0.00 32 1018.6
20260502183258 64 296 0.0 0.0 0.00 0.00 0.00 30 1018.6
20260502183035 63 357 0.0 0.0 0.00 0.00 0.00 31 1018.9
20260502182923 64 331 0.0 0.0 0.00 0.00 0.00 29 1018.7
20260502181757 63 337 0.0 0.0 0.00 0.00 0.00 33 1018.9
20260502181258 63 312 0.0 0.0 0.00 0.00 0.00 33 1018.9
20260502180759 63 309 0.0 0.0 0.00 0.00 0.00 34 1019.0
20260502180258 63 286 0.0 0.0 0.00 0.00 0.00 32 1019.0
20260502164256 58 16 0.0 0.0 0.00 0.00 0.00 35 1019.4
20260502164142 58 293 0.0 0.0 0.00 0.00 0.00 35 1019.4
20260502163627 58 348 0.0 0.0 0.00 0.00 0.00 35 1019.5
20260502162756 58 0 0.0 0.0 0.00 0.00 0.00 34 1019.5
20260502162255 58 351 0.0 0.0 0.00 0.00 0.00 35 1019.5
20260502161755 58 341 0.0 0.0 0.00 0.00 0.00 35 1019.5
20260502161254 58 331 0.0 0.0 0.00 0.00 0.00 35 1019.5
20260502160755 58 27 0.0 0.0 0.00 0.00 0.00 34 1019.7
20260502160255 57 1 0.0 0.0 0.00 0.00 0.00 36 1019.7
20260502160141 57 314 0.0 0.0 0.00 0.00 0.00 36 1019.7
20260502151753 56 303 0.0 0.0 0.00 0.00 0.00 34 1019.9
20260502151254 56 73 0.0 0.0 0.00 0.00 0.00 34 1020.0
20260502151025 55 97 0.0 0.0 0.00 0.00 0.00 34 1020.0
20260502150917 56 73 0.0 0.0 0.00 0.00 0.00 33 1019.9
20260502150132 54 99 0.0 0.0 0.00 0.00 0.00 35 1020.0
20260502130249 41 144 0.0 0.0 0.00 0.00 0.00 58 1019.9
20260502123742 41 138 0.0 0.0 0.00 0.00 0.00 54 1019.7
20260502123241 40 135 0.0 0.0 0.00 0.00 0.00 55 1019.7
20260502122739 40 137 0.0 0.0 0.00 0.00 0.00 55 1019.5
20260502122237 41 137 0.0 0.0 0.00 0.00 0.00 55 1019.5
20260502121737 41 135 0.0 0.0 0.00 0.00 0.00 54 1019.5
20260502121238 41 135 0.0 0.0 0.00 0.00 0.00 54 1019.4
20260502120734 41 131 0.0 0.0 0.00 0.00 0.00 53 1019.5
20260502120233 41 134 0.0 0.0 0.00 0.00 0.00 53 1019.5
20260502115734 41 137 0.0 0.0 0.00 0.00 0.00 53 1019.5
20260502115233 41 151 0.0 0.0 0.00 0.00 0.00 53 1019.4
20260502115006 42 133 0.0 0.0 0.00 0.00 0.00 53 1019.4
20260502114859 42 149 0.0 0.0 0.00 0.00 0.00 53 1019.4
20260502113950 42 147 0.0 0.0 0.00 0.00 0.00 52 1019.4
20260502113849 42 142 0.0 0.0 0.00 0.00 0.00 52 1019.4
20260502112735 42 138 0.0 0.0 0.00 0.00 0.00 52 1019.4
20260502112232 41 140 0.0 0.0 0.00 0.00 0.00 53 1019.5
20260502111733 41 144 0.0 0.0 0.00 0.00 0.00 54 1019.5
20260502111616 40 144 0.0 0.0 0.00 0.00 0.00 55 1019.5
20260502110733 40 151 0.0 0.0 0.00 0.00 0.00 55 1019.5
20260502110232 41 149 0.0 0.0 0.00 0.00 0.00 54 1019.4
20260502105732 42 149 0.0 0.0 0.00 0.00 0.00 52 1019.4
20260502105233 42 149 0.0 0.0 0.00 0.00 0.00 51 1019.4
20260502105115 42 148 0.0 0.0 0.00 0.00 0.00 50 1019.4
20260502104234 42 148 0.0 0.0 0.00 0.00 0.00 50 1019.3
20260502103733 42 148 0.0 0.0 0.00 0.00 0.00 49 1019.3
20260502103233 43 148 0.0 0.0 0.00 0.00 0.00 49 1019.3
20260502102734 42 152 0.0 0.0 0.00 0.00 0.00 50 1019.3
20260502102233 42 152 0.0 0.0 0.00 0.00 0.00 50 1019.2
20260502101735 42 152 0.0 0.0 0.00 0.00 0.00 50 1019.2
20260502101234 42 155 0.0 0.0 0.00 0.00 0.00 50 1019.2
20260502100734 42 149 0.0 0.0 0.00 0.00 0.00 50 1019.1
20260502100610 43 157 0.0 0.0 0.00 0.00 0.00 50 1019.0
20260502090733 43 149 0.0 0.0 0.00 0.00 0.00 50 1019.1
20260502090231 43 148 0.0 0.0 0.00 0.00 0.00 49 1019.1
20260502090110 43 145 0.0 0.0 0.00 0.00 0.00 49 1019.0
20260502071231 48 164 0.0 0.0 0.00 0.00 0.00 42 1018.7
20260502071138 48 157 0.0 0.0 0.00 0.00 0.00 41 1018.7
20260502070232 48 159 0.0 0.0 0.00 0.00 0.00 41 1018.7
20260502065733 48 151 0.0 0.0 0.00 0.00 0.00 41 1018.7
20260502065231 48 154 0.0 0.0 0.00 0.00 0.00 41 1018.7
20260502064733 48 159 0.0 0.0 0.00 0.00 0.00 41 1018.6
20260502064232 48 151 0.0 0.0 0.00 0.00 0.00 40 1018.7
20260502063731 48 149 0.0 0.0 0.00 0.00 0.00 39 1018.7
20260502063232 48 161 0.0 0.0 0.00 0.00 0.00 39 1018.7
20260502062732 48 145 0.0 0.0 0.00 0.00 0.00 39 1018.6
20260502062232 48 144 0.0 0.0 0.00 0.00 0.00 39 1018.6
20260502061732 48 135 0.0 0.0 0.00 0.00 0.00 39 1018.6
20260502061231 49 138 0.0 0.0 0.00 0.00 0.00 39 1018.6
20260502060718 49 138 0.0 0.0 0.00 0.00 0.00 39 1018.6
20260502060212 49 147 0.0 0.0 0.00 0.00 0.00 39 1018.6
20260502055714 49 137 0.0 0.0 0.00 0.00 0.00 39 1018.6
20260502055213 49 128 0.0 0.0 0.00 0.00 0.00 39 1018.6
20260502054710 49 131 0.0 0.0 0.00 0.00 0.00 39 1018.7
20260502054213 49 138 0.0 0.0 0.00 0.00 0.00 39 1018.6
20260502053711 49 133 0.0 0.0 0.00 0.00 0.00 39 1018.6
20260502053208 49 124 0.0 0.0 0.00 0.00 0.00 39 1018.6
20260502052710 50 123 0.0 0.0 0.00 0.00 0.00 39 1018.6
20260502052209 50 134 0.0 0.0 0.00 0.00 0.00 38 1018.6
20260502051707 50 131 0.0 0.0 0.00 0.00 0.00 39 1018.7
20260502051209 50 130 0.0 0.0 0.00 0.00 0.00 38 1018.6
20260502050707 50 144 0.0 0.0 0.00 0.00 0.00 38 1018.7
20260502050208 50 130 0.0 0.0 0.00 0.00 0.00 38 1018.6
20260502050049 50 145 0.0 0.0 0.00 0.00 0.00 38 1018.7
20260502045209 50 128 0.0 0.0 0.00 0.00 0.00 38 1018.7
20260502044703 50 147 0.0 0.0 0.00 0.00 0.00 38 1018.7
20260502044206 50 149 0.0 0.0 0.00 0.00 0.00 37 1018.7
20260502043704 51 147 0.0 0.0 0.00 0.00 0.00 37 1018.7
20260502043203 51 128 0.0 0.0 0.00 0.00 0.00 36 1018.7
20260502042704 51 148 0.0 0.0 0.00 0.00 0.00 36 1018.7
20260502042204 51 123 0.0 0.0 0.00 0.00 0.00 36 1018.6
20260502041703 52 111 0.0 0.0 0.00 0.00 0.00 36 1018.7
20260502041203 52 141 0.0 0.0 0.00 0.00 0.00 36 1018.7
20260502040706 52 128 0.0 0.0 0.00 0.00 0.00 36 1018.6
20260502040202 53 130 0.0 0.0 0.00 0.00 0.00 36 1018.6
20260502040050 53 127 0.0 0.0 0.00 0.00 0.00 35 1018.6
20260502035203 53 117 0.0 0.0 0.00 0.00 0.00 35 1018.6
20260502034704 53 130 0.0 0.0 0.00 0.00 0.00 35 1018.6
20260502034206 53 121 0.0 0.0 0.00 0.00 0.00 36 1018.6
20260502033705 53 130 0.0 0.0 0.00 0.00 0.00 36 1018.6
20260502033640 54 125 0.0 0.0 0.00 0.00 0.00 39 1018.5
20260502033633 53 125 0.0 0.0 0.00 0.00 0.00 37 1018.5
20260502032823 53 116 0.0 0.0 0.00 0.00 0.00 38 1018.5
20260502031705 54 127 0.0 0.0 0.00 0.00 0.00 38 1018.4
20260502031549 54 118 0.0 0.0 0.00 0.00 0.00 38 1018.4
20260502030704 55 147 0.0 0.0 0.00 0.00 0.00 37 1018.3
20260502030547 55 133 0.0 0.0 0.00 0.00 0.00 35 1018.2
20260502025704 56 134 0.0 0.0 0.00 0.00 0.00 34 1018.1
20260502025204 58 138 0.0 0.0 0.00 0.00 0.00 32 1018.1
20260502024704 60 142 0.0 0.0 0.00 0.00 0.00 29 1018.2
20260502024204 62 145 0.0 0.0 0.00 0.00 0.00 23 1018.1
20260502023704 62 99 0.0 0.0 0.00 0.00 0.00 20 1018.1
20260502023205 63 99 0.0 0.0 0.00 0.00 0.00 21 1017.9
20260502022705 63 99 0.0 0.0 0.00 0.00 0.00 20 1018.1
20260502022203 64 99 0.0 0.0 0.00 0.00 0.00 19 1018.1
20260502021704 64 99 0.0 0.0 0.00 0.00 0.00 19 1017.9
20260502021205 65 99 0.0 0.0 0.00 0.00 0.00 19 1017.9
20260502020705 65 99 0.0 0.0 0.00 0.00 0.00 19 1017.9
20260502020205 65 99 0.0 0.0 0.00 0.00 0.00 19 1017.9
20260502015657 65 99 0.0 0.0 0.00 0.00 0.00 18 1018.1
20260502015156 65 99 0.0 0.0 0.00 0.00 0.00 18 1018.1
20260502014649 65 55 0.0 0.0 0.00 0.00 0.00 18 1018.1
20260502014151 65 51 0.0 0.0 0.00 0.00 0.00 18 1018.1
20260502013650 66 49 0.0 0.0 0.00 0.00 0.00 18 1018.1
20260502013150 66 37 0.0 0.0 0.00 0.00 0.00 18 1018.1
20260502012648 67 34 0.0 0.0 0.00 0.00 0.00 18 1018.2
20260502012148 68 0 0.0 0.0 0.00 0.00 0.00 18 1018.2
20260502011647 67 0 0.0 0.0 0.00 0.00 0.00 18 1018.2
20260502011147 67 0 0.0 0.0 0.00 0.00 0.00 18 1018.3
20260502010647 66 0 0.0 0.0 0.00 0.00 0.00 18 1018.3
20260502010524 66 32 0.0 0.0 0.00 0.00 0.00 19 1018.3
20260502005641 66 23 0.0 0.0 0.00 0.00 0.00 18 1018.4
20260502005140 66 0 0.0 0.0 0.00 0.00 0.00 19 1018.4
20260502004640 67 14 0.0 0.0 0.00 0.00 0.00 18 1018.4
20260502004141 67 18 0.0 0.0 0.00 0.00 0.00 19 1018.4
20260502003637 67 357 0.0 0.0 0.00 0.00 0.00 19 1018.4
20260502003520 67 353 0.0 0.0 0.00 0.00 0.00 20 1018.4
20260502003016 67 32 0.0 0.0 0.00 0.00 0.00 19 1018.4
20260502002513 67 323 0.0 0.0 0.00 0.00 0.00 19 1018.5
20260502001632 67 293 0.0 0.0 0.00 0.00 0.00 19 1018.5
20260502001134 67 310 0.0 0.0 0.00 0.00 0.00 20 1018.5
20260502000633 67 358 0.0 0.0 0.00 0.00 0.00 20 1018.5
20260502000132 67 30 0.0 0.0 0.00 0.00 0.00 20 1018.5
20260501235632 67 258 0.0 0.0 0.00 0.00 0.00 19 1018.5
20260501235131 67 13 0.0 0.0 0.00 0.00 0.00 20 1018.6
20260501234633 66 248 0.0 0.0 0.00 0.00 0.00 19 1018.5
20260501234133 66 28 0.0 0.0 0.00 0.00 0.00 19 1018.6
20260501233634 67 0 0.0 0.0 0.00 0.00 0.00 20 1018.6
20260501233131 66 293 0.0 0.0 0.00 0.00 0.00 21 1018.6
20260501232631 66 327 0.0 0.0 0.00 0.00 0.00 20 1018.6
20260501232132 66 331 0.0 0.0 0.00 0.00 0.00 22 1018.6
20260501231631 66 16 0.0 0.0 0.00 0.00 0.00 20 1018.7
20260501231132 66 34 0.0 0.0 0.00 0.00 0.00 20 1018.9
20260501231015 66 18 0.0 0.0 0.00 0.00 0.00 22 1018.9
20260501230412 66 18 0.0 0.0 0.00 0.00 0.00 22 1018.9
20260501225631 66 302 0.0 0.0 0.00 0.00 0.00 21 1018.9
20260501225129 66 338 0.0 0.0 0.00 0.00 0.00 22 1019.0
20260501224630 66 0 0.0 0.0 0.00 0.00 0.00 22 1019.0
20260501224128 66 319 0.0 0.0 0.00 0.00 0.00 22 1019.1
20260501224014 65 345 0.0 0.0 0.00 0.00 0.00 22 1019.1
20260501223129 65 0 0.0 0.0 0.00 0.00 0.00 21 1019.1
20260501222628 65 0 0.0 0.0 0.00 0.00 0.00 22 1019.2
20260501222130 65 347 0.0 0.0 0.00 0.00 0.00 22 1019.3
20260501221627 65 350 0.0 0.0 0.00 0.00 0.00 23 1019.4
20260501221129 65 338 0.0 0.0 0.00 0.00 0.00 23 1019.4
20260501220629 65 0 0.0 0.0 0.00 0.00 0.00 21 1019.5
20260501220129 65 27 0.0 0.0 0.00 0.00 0.00 22 1019.5
20260501215627 65 25 0.0 0.0 0.00 0.00 0.00 21 1019.7
20260501215127 65 329 0.0 0.0 0.00 0.00 0.00 21 1019.7
20260501214627 65 357 0.0 0.0 0.00 0.00 0.00 21 1019.8
20260501214127 65 358 0.0 0.0 0.00 0.00 0.00 22 1019.8
20260501213626 64 306 0.0 0.0 0.00 0.00 0.00 24 1019.9
20260501213511 64 258 0.0 0.0 0.00 0.00 0.00 22 1020.0
20260501212627 64 296 0.0 0.0 0.00 0.00 0.00 22 1020.0
20260501212127 65 314 0.0 0.0 0.00 0.00 0.00 25 1020.0
20260501211627 64 21 0.0 0.0 0.00 0.00 0.00 24 1020.0
20260501211512 63 341 0.0 0.0 0.00 0.00 0.00 25 1020.1
20260501211010 63 317 0.0 0.0 0.00 0.00 0.00 24 1020.1
20260501210127 63 278 0.0 0.0 0.00 0.00 0.00 25 1020.2